IONOSFERA-M B

Last updated on Sat Jul 26 2025 00:02:08 GMT+0000 (Coordinated Universal Time)

1 64877U 25155B 25206.69364755 .00000175 00000+0 10000-3 0 9996 2 64877 98.5492 172.6378 0001980 97.6918 82.2612 14.21186206 16

Satellite not in orbit

IONOSFERA-M B